COSMOS 2251 DEB, 37535

Orbit data source: Space-Track

COSMOS 2251 DEB, 37535 is space debris in LEO originally from a launch on Wed, 16 Jun 1993 UTC launched from the Plesetsk Missile And Space Complex (PKMTR). The debris from Iridium 33, an American commercial communications satellite, has been tracked extensively since its accidental collision with the defunct Russian satellite Cosmos 2251 in 2009. This event, occurring at high speed in low Earth orbit (LEO), generated thousands of pieces of space debris, significantly increasing the risk of further collisions. The Iridium 33 debris cloud has impacted space traffic management and orbital debris mitigation strategies, making it a subject of ongoing study in space situational awareness.

Loading next visibility...
Identifier
37535, 1993-036BNQ
Orbit
LEO
Country
Flag of CISCIS
Related business
Manufacturer
Unknown
Mission
Spacecraft
Bus & Motor
Unknown
Mass
Unknown
Launch date (UTC)
1993-06-16 (33 years ago)
Launch vehicle
Unknown
Launch site
Plesetsk Missile And Space Complex (PKMTR)
Object type
Payload
Rocket body
Debris
Shape & HBR
Unknown shape, 0.1 m
Radar Cross Section
Medium (>0.1 m² and <1 m²)

Expand to show TLE details & history
Last TLE update: 11 hours ago

TLE from 11 hours ago
0 COSMOS 2251 DEB
1 37535U 93036BNQ 26237.90147198  .00001565  00000-0  33159-3 0  9994
2 37535  74.0226 304.8581 0027766  12.8178 102.2786 14.59872919890615
Epoch: 2026-08-25T21:38Z
TLE epoch observation values (Epoch: 2026-08-25T21:38:07.179Z)
Latitude
60.37811°
Longitude
156.10914°
Altitude
707.746 km
Speed
7.506 km/s
True Right ascension
06h 19m 12s
True Declination
60° 13' 45"
Sunlit
Object was in daylight at epoch
Visualization orbit readout
Latitude
Unknown
Longitude
Unknown
Altitude
Unknown
Speed
Unknown
Apparent Right ascension
Unknown
Apparent Declination
Unknown
Sunlit
N/A
Visualization observer readout
Local Sidereal Time
23:41:46
Azimuth
Unknown
Elevation
Unknown
Doppler factor
Unknown
Orbital elements
Apogee altitude
710.812 km
Perigee altitude
671.554 km
Semi-major axis
7,069.32 km
Eccentricity
0.00278
Inclination
74.0226°
RAAN
304.8581°
Arg. of periapsis
12.8178°
True anomaly
102.58927°
Mean anomaly
102.2786°
Eccentric anomaly
102.43396°
Mean motion
3.65155 °/min
Orbital period
98.59 mins
BSTAR
0.00033159
Loading maneuver chart data...
Computing Atmospheric mass density...
Loading historical data...
Loading historical data...
Loading historical data...
Loading historical data...
Loading historical data...
Loading historical data...
Loading historical data...

Documentation

Showing up to 5 results
|